Time,TemperatureF,DewpointF,PressureIn,WindDirection,WindDirectionDegrees,WindSpeedMPH,WindSpeedGustMPH,Humidity,HourlyPrecipIn,Conditions,Clouds,dailyrainin,SoftwareType,DateUTC
2013-02-01 00:04:00,11.0,-99.9,-100.00,NNW,338,17.0,22.0,-999,-99.99,,,-99.99,,2013-02-01 05:04:00,
2013-02-01 00:12:00,11.0,-99.9,-100.00,NNW,338,17.0,22.0,-999,-99.99,,,-99.99,,2013-02-01 05:12:00,
2013-02-01 00:23:00,11.0,-99.9,-100.00,NNW,338,17.0,22.0,-999,-99.99,,,-99.99,,2013-02-01 05:23:00,
2013-02-01 00:32:00,11.0,-99.9,-100.00,NNW,335,11.0,26.0,-999,-99.99,,,-99.99,,2013-02-01 05:32:00,
2013-02-01 00:40:00,10.0,-99.9,-100.00,NW,315,10.0,16.0,-999,-99.99,,,-99.99,,2013-02-01 05:40:00,
2013-02-01 00:42:00,11.0,-99.9,-100.00,NNW,335,11.0,26.0,-999,-99.99,,,-99.99,,2013-02-01 05:42:00,
2013-02-01 00:52:00,11.0,-99.9,-100.00,NNW,335,11.0,26.0,-999,-99.99,,,-99.99,,2013-02-01 05:52:00,
2013-02-01 01:02:00,10.0,-99.9,-100.00,NW,315,10.0,16.0,-999,-99.99,,,-99.99,,2013-02-01 06:02:00,
2013-02-01 01:12:00,10.0,-99.9,-100.00,NW,315,10.0,16.0,-999,-99.99,,,-99.99,,2013-02-01 06:12:00,
2013-02-01 01:22:00,10.0,-99.9,-100.00,NW,315,10.0,16.0,-999,-99.99,,,-99.99,,2013-02-01 06:22:00,
2013-02-01 01:32:00,10.0,-99.9,-100.00,NW,315,10.0,16.0,-999,-99.99,,,-99.99,,2013-02-01 06:32:00,
2013-02-01 01:40:00,10.0,-99.9,-100.00,NW,312,8.0,15.0,-999,-99.99,,,-99.99,,2013-02-01 06:40:00,
2013-02-01 02:02:00,10.0,-99.9,-100.00,NW,312,8.0,15.0,-999,-99.99,,,-99.99,,2013-02-01 07:02:00,
2013-02-01 02:12:00,10.0,-99.9,-100.00,NW,312,8.0,15.0,-999,-99.99,,,-99.99,,2013-02-01 07:12:00,
2013-02-01 02:22:00,10.0,-99.9,-100.00,NW,312,8.0,15.0,-999,-99.99,,,-99.99,,2013-02-01 07:22:00,
2013-02-01 02:32:00,10.0,-99.9,-100.00,NW,312,8.0,15.0,-999,-99.99,,,-99.99,,2013-02-01 07:32:00,
2013-02-01 02:40:00,9.0,-99.9,-100.00,NW,311,6.0,14.0,-999,-99.99,,,-99.99,,2013-02-01 07:40:00,
2013-02-01 03:02:00,9.0,-99.9,-100.00,NW,311,6.0,14.0,-999,-99.99,,,-99.99,,2013-02-01 08:02:00,
2013-02-01 03:11:00,9.0,-99.9,-100.00,NW,311,6.0,14.0,-999,-99.99,,,-99.99,,2013-02-01 08:11:00,
2013-02-01 03:22:00,9.0,-99.9,-100.00,NW,311,6.0,14.0,-999,-99.99,,,-99.99,,2013-02-01 08:22:00,
2013-02-01 03:32:00,9.0,-99.9,-100.00,NW,311,6.0,14.0,-999,-99.99,,,-99.99,,2013-02-01 08:32:00,
2013-02-01 03:40:00,9.0,-99.9,-100.00,NW,324,12.0,19.0,-999,-99.99,,,-99.99,,2013-02-01 08:40:00,
2013-02-01 04:02:00,9.0,-99.9,-100.00,NW,324,12.0,19.0,-999,-99.99,,,-99.99,,2013-02-01 09:02:00,
2013-02-01 04:11:00,9.0,-99.9,-100.00,NW,324,12.0,19.0,-999,-99.99,,,-99.99,,2013-02-01 09:11:00,
2013-02-01 04:22:00,9.0,-99.9,-100.00,NW,324,12.0,19.0,-999,-99.99,,,-99.99,,2013-02-01 09:22:00,
2013-02-01 04:32:00,9.0,-99.9,-100.00,NW,324,12.0,19.0,-999,-99.99,,,-99.99,,2013-02-01 09:32:00,
2013-02-01 04:40:00,9.0,-99.9,-100.00,NW,319,9.0,19.0,-999,-99.99,,,-99.99,,2013-02-01 09:40:00,
2013-02-01 05:01:00,9.0,-99.9,-100.00,NW,319,9.0,19.0,-999,-99.99,,,-99.99,,2013-02-01 10:01:00,
2013-02-01 05:11:00,9.0,-99.9,-100.00,NW,319,9.0,19.0,-999,-99.99,,,-99.99,,2013-02-01 10:11:00,
2013-02-01 05:22:00,9.0,-99.9,-100.00,NW,319,9.0,19.0,-999,-99.99,,,-99.99,,2013-02-01 10:22:00,
2013-02-01 05:32:00,9.0,-99.9,-100.00,NW,319,9.0,19.0,-999,-99.99,,,-99.99,,2013-02-01 10:32:00,
2013-02-01 05:40:00,9.0,-99.9,-100.00,NW,310,5.0,13.0,-999,-99.99,,,-99.99,,2013-02-01 10:40:00,
2013-02-01 06:03:00,9.0,-99.9,-100.00,NW,310,5.0,13.0,-999,-99.99,,,-99.99,,2013-02-01 11:03:00,
2013-02-01 06:12:00,9.0,-99.9,-100.00,NW,310,5.0,13.0,-999,-99.99,,,-99.99,,2013-02-01 11:12:00,
2013-02-01 06:22:00,9.0,-99.9,-100.00,NW,310,5.0,13.0,-999,-99.99,,,-99.99,,2013-02-01 11:22:00,
2013-02-01 06:32:00,9.0,-99.9,-100.00,NW,310,5.0,13.0,-999,-99.99,,,-99.99,,2013-02-01 11:32:00,
2013-02-01 06:40:00,9.0,-99.9,-100.00,WNW,303,5.0,10.0,-999,-99.99,,,-99.99,,2013-02-01 11:40:00,
2013-02-01 07:03:00,9.0,-99.9,-100.00,WNW,303,5.0,10.0,-999,-99.99,,,-99.99,,2013-02-01 12:03:00,
2013-02-01 07:12:00,9.0,-99.9,-100.00,WNW,303,5.0,10.0,-999,-99.99,,,-99.99,,2013-02-01 12:12:00,
2013-02-01 07:23:00,9.0,-99.9,-100.00,WNW,303,5.0,10.0,-999,-99.99,,,-99.99,,2013-02-01 12:23:00,
2013-02-01 07:32:00,9.0,-99.9,-100.00,WNW,303,5.0,10.0,-999,-99.99,,,-99.99,,2013-02-01 12:32:00,
2013-02-01 07:40:00,9.0,-99.9,-100.00,WNW,298,3.0,12.0,-999,-99.99,,,-99.99,,2013-02-01 12:40:00,
2013-02-01 08:02:00,9.0,-99.9,-100.00,WNW,298,3.0,12.0,-999,-99.99,,,-99.99,,2013-02-01 13:02:00,
2013-02-01 08:12:00,9.0,-99.9,-100.00,WNW,298,3.0,12.0,-999,-99.99,,,-99.99,,2013-02-01 13:12:00,
2013-02-01 08:22:00,9.0,-99.9,-100.00,WNW,298,3.0,12.0,-999,-99.99,,,-99.99,,2013-02-01 13:22:00,
2013-02-01 08:33:00,9.0,-99.9,-100.00,WNW,298,3.0,12.0,-999,-99.99,,,-99.99,,2013-02-01 13:33:00,
2013-02-01 08:40:00,8.0,-99.9,-100.00,West,280,1.0,9.0,-999,-99.99,,,-99.99,,2013-02-01 13:40:00,
2013-02-01 09:04:00,8.0,-99.9,-100.00,West,280,1.0,9.0,-999,-99.99,,,-99.99,,2013-02-01 14:04:00,
2013-02-01 09:12:00,8.0,-99.9,-100.00,West,280,1.0,9.0,-999,-99.99,,,-99.99,,2013-02-01 14:12:00,
2013-02-01 09:22:00,8.0,-99.9,-100.00,West,280,1.0,9.0,-999,-99.99,,,-99.99,,2013-02-01 14:22:00,
2013-02-01 09:33:00,8.0,-99.9,-100.00,West,280,1.0,9.0,-999,-99.99,,,-99.99,,2013-02-01 14:33:00,
2013-02-01 09:40:00,7.0,-99.9,-100.00,NW,325,2.0,10.0,-999,-99.99,,,-99.99,,2013-02-01 14:40:00,
2013-02-01 10:03:00,7.0,-99.9,-100.00,NW,325,2.0,10.0,-999,-99.99,,,-99.99,,2013-02-01 15:03:00,
2013-02-01 10:12:00,7.0,-99.9,-100.00,NW,325,2.0,10.0,-999,-99.99,,,-99.99,,2013-02-01 15:12:00,
2013-02-01 10:22:00,7.0,-99.9,-100.00,NW,325,2.0,10.0,-999,-99.99,,,-99.99,,2013-02-01 15:22:00,
2013-02-01 10:33:00,7.0,-99.9,-100.00,NW,325,2.0,10.0,-999,-99.99,,,-99.99,,2013-02-01 15:33:00,
2013-02-01 10:40:00,6.0,-99.9,-100.00,West,269,5.0,11.0,-999,-99.99,,,-99.99,,2013-02-01 15:40:00,
2013-02-01 11:03:00,6.0,-99.9,-100.00,West,269,5.0,11.0,-999,-99.99,,,-99.99,,2013-02-01 16:03:00,
2013-02-01 11:12:00,6.0,-99.9,-100.00,West,269,5.0,11.0,-999,-99.99,,,-99.99,,2013-02-01 16:12:00,
2013-02-01 11:22:00,6.0,-99.9,-100.00,West,269,5.0,11.0,-999,-99.99,,,-99.99,,2013-02-01 16:22:00,
2013-02-01 11:33:00,6.0,-99.9,-100.00,West,269,5.0,11.0,-999,-99.99,,,-99.99,,2013-02-01 16:33:00,
2013-02-01 11:40:00,8.0,-99.9,-100.00,WSW,254,6.0,14.0,-999,-99.99,,,-99.99,,2013-02-01 16:40:00,
2013-02-01 12:03:00,8.0,-99.9,-100.00,WSW,254,6.0,14.0,-999,-99.99,,,-99.99,,2013-02-01 17:03:00,
2013-02-01 12:12:00,8.0,-99.9,-100.00,WSW,254,6.0,14.0,-999,-99.99,,,-99.99,,2013-02-01 17:12:00,
2013-02-01 12:22:00,8.0,-99.9,-100.00,WSW,254,6.0,14.0,-999,-99.99,,,-99.99,,2013-02-01 17:22:00,
2013-02-01 12:32:00,8.0,-99.9,-100.00,WSW,254,6.0,14.0,-999,-99.99,,,-99.99,,2013-02-01 17:32:00,
2013-02-01 12:40:00,8.0,-99.9,-100.00,WSW,251,9.0,16.0,-999,-99.99,,,-99.99,,2013-02-01 17:40:00,
2013-02-01 13:03:00,8.0,-99.9,-100.00,WSW,251,9.0,16.0,-999,-99.99,,,-99.99,,2013-02-01 18:03:00,
2013-02-01 13:13:00,8.0,-99.9,-100.00,WSW,251,9.0,16.0,-999,-99.99,,,-99.99,,2013-02-01 18:13:00,
2013-02-01 13:23:00,8.0,-99.9,-100.00,WSW,251,9.0,16.0,-999,-99.99,,,-99.99,,2013-02-01 18:23:00,
2013-02-01 13:33:00,8.0,-99.9,-100.00,WSW,251,9.0,16.0,-999,-99.99,,,-99.99,,2013-02-01 18:33:00,
2013-02-01 13:40:00,9.0,-99.9,-100.00,WSW,248,6.0,12.0,-999,-99.99,,,-99.99,,2013-02-01 18:40:00,
2013-02-01 14:03:00,9.0,-99.9,-100.00,WSW,248,6.0,12.0,-999,-99.99,,,-99.99,,2013-02-01 19:03:00,
2013-02-01 14:12:00,9.0,-99.9,-100.00,WSW,248,6.0,12.0,-999,-99.99,,,-99.99,,2013-02-01 19:12:00,
2013-02-01 14:22:00,9.0,-99.9,-100.00,WSW,248,6.0,12.0,-999,-99.99,,,-99.99,,2013-02-01 19:22:00,
2013-02-01 14:33:00,9.0,-99.9,-100.00,WSW,248,6.0,12.0,-999,-99.99,,,-99.99,,2013-02-01 19:33:00,
2013-02-01 14:40:00,8.0,-99.9,-100.00,NW,314,6.0,14.0,-999,-99.99,,,-99.99,,2013-02-01 19:40:00,
2013-02-01 15:03:00,8.0,-99.9,-100.00,NW,314,6.0,14.0,-999,-99.99,,,-99.99,,2013-02-01 20:03:00,
2013-02-01 15:12:00,8.0,-99.9,-100.00,NW,314,6.0,14.0,-999,-99.99,,,-99.99,,2013-02-01 20:12:00,
2013-02-01 15:22:00,8.0,-99.9,-100.00,NW,314,6.0,14.0,-999,-99.99,,,-99.99,,2013-02-01 20:22:00,
2013-02-01 15:32:00,8.0,-99.9,-100.00,NW,314,6.0,14.0,-999,-99.99,,,-99.99,,2013-02-01 20:32:00,
2013-02-01 15:40:00,8.0,-99.9,-100.00,NW,316,4.0,10.0,-999,-99.99,,,-99.99,,2013-02-01 20:40:00,
2013-02-01 16:02:00,8.0,-99.9,-100.00,NW,316,4.0,10.0,-999,-99.99,,,-99.99,,2013-02-01 21:02:00,
2013-02-01 16:12:00,8.0,-99.9,-100.00,NW,316,4.0,10.0,-999,-99.99,,,-99.99,,2013-02-01 21:12:00,
2013-02-01 16:22:00,8.0,-99.9,-100.00,NW,316,4.0,10.0,-999,-99.99,,,-99.99,,2013-02-01 21:22:00,
2013-02-01 16:32:00,8.0,-99.9,-100.00,NW,316,4.0,10.0,-999,-99.99,,,-99.99,,2013-02-01 21:32:00,
2013-02-01 16:40:00,7.0,-99.9,-100.00,West,262,5.0,10.0,-999,-99.99,,,-99.99,,2013-02-01 21:40:00,
2013-02-01 17:03:00,7.0,-99.9,-100.00,West,262,5.0,10.0,-999,-99.99,,,-99.99,,2013-02-01 22:03:00,
2013-02-01 17:11:00,7.0,-99.9,-100.00,West,262,5.0,10.0,-999,-99.99,,,-99.99,,2013-02-01 22:11:00,
2013-02-01 17:22:00,7.0,-99.9,-100.00,West,262,5.0,10.0,-999,-99.99,,,-99.99,,2013-02-01 22:22:00,
2013-02-01 17:32:00,7.0,-99.9,-100.00,West,262,5.0,10.0,-999,-99.99,,,-99.99,,2013-02-01 22:32:00,
2013-02-01 17:40:00,5.0,-99.9,-100.00,North,-999,0.0,3.0,-999,-99.99,,,-99.99,,2013-02-01 22:40:00,
2013-02-01 18:02:00,5.0,-99.9,-100.00,North,-999,0.0,3.0,-999,-99.99,,,-99.99,,2013-02-01 23:02:00,
2013-02-01 18:11:00,5.0,-99.9,-100.00,North,-999,0.0,3.0,-999,-99.99,,,-99.99,,2013-02-01 23:11:00,
2013-02-01 18:22:00,5.0,-99.9,-100.00,North,-999,0.0,3.0,-999,-99.99,,,-99.99,,2013-02-01 23:22:00,
2013-02-01 18:32:00,5.0,-99.9,-100.00,North,-999,0.0,3.0,-999,-99.99,,,-99.99,,2013-02-01 23:32:00,
2013-02-01 18:40:00,2.0,-99.9,-100.00,West,267,0.0,4.0,-999,-99.99,,,-99.99,,2013-02-01 23:40:00,
2013-02-01 19:02:00,2.0,-99.9,-100.00,West,267,0.0,4.0,-999,-99.99,,,-99.99,,2013-02-02 00:02:00,
2013-02-01 19:11:00,2.0,-99.9,-100.00,West,267,0.0,4.0,-999,-99.99,,,-99.99,,2013-02-02 00:11:00,
2013-02-01 19:22:00,2.0,-99.9,-100.00,West,267,0.0,4.0,-999,-99.99,,,-99.99,,2013-02-02 00:22:00,
2013-02-01 19:32:00,2.0,-99.9,-100.00,West,267,0.0,4.0,-999,-99.99,,,-99.99,,2013-02-02 00:32:00,
2013-02-01 19:40:00,2.0,-99.9,-100.00,WSW,258,4.0,8.0,-999,-99.99,,,-99.99,,2013-02-02 00:40:00,
2013-02-01 20:03:00,2.0,-99.9,-100.00,WSW,258,4.0,8.0,-999,-99.99,,,-99.99,,2013-02-02 01:03:00,
2013-02-01 20:11:00,2.0,-99.9,-100.00,WSW,258,4.0,8.0,-999,-99.99,,,-99.99,,2013-02-02 01:11:00,
2013-02-01 20:22:00,2.0,-99.9,-100.00,WSW,258,4.0,8.0,-999,-99.99,,,-99.99,,2013-02-02 01:22:00,
2013-02-01 20:32:00,2.0,-99.9,-100.00,WSW,258,4.0,8.0,-999,-99.99,,,-99.99,,2013-02-02 01:32:00,
2013-02-01 20:40:00,1.0,-99.9,-100.00,West,266,6.0,14.0,-999,-99.99,,,-99.99,,2013-02-02 01:40:00,
2013-02-01 21:01:00,1.0,-99.9,-100.00,West,266,6.0,14.0,-999,-99.99,,,-99.99,,2013-02-02 02:01:00,
2013-02-01 21:11:00,1.0,-99.9,-100.00,West,266,6.0,14.0,-999,-99.99,,,-99.99,,2013-02-02 02:11:00,
2013-02-01 21:22:00,1.0,-99.9,-100.00,West,266,6.0,14.0,-999,-99.99,,,-99.99,,2013-02-02 02:22:00,
2013-02-01 21:32:00,1.0,-99.9,-100.00,West,266,6.0,14.0,-999,-99.99,,,-99.99,,2013-02-02 02:32:00,
2013-02-01 21:40:00,2.0,-99.9,-100.00,West,279,9.0,14.0,-999,-99.99,,,-99.99,,2013-02-02 02:40:00,
2013-02-01 22:02:00,2.0,-99.9,-100.00,West,279,9.0,14.0,-999,-99.99,,,-99.99,,2013-02-02 03:02:00,
2013-02-01 22:12:00,2.0,-99.9,-100.00,West,279,9.0,14.0,-999,-99.99,,,-99.99,,2013-02-02 03:12:00,
2013-02-01 22:22:00,2.0,-99.9,-100.00,West,279,9.0,14.0,-999,-99.99,,,-99.99,,2013-02-02 03:22:00,
2013-02-01 22:32:00,2.0,-99.9,-100.00,West,279,9.0,14.0,-999,-99.99,,,-99.99,,2013-02-02 03:32:00,
2013-02-01 22:40:00,1.0,-99.9,-100.00,West,261,9.0,16.0,-999,-99.99,,,-99.99,,2013-02-02 03:40:00,
2013-02-01 23:02:00,1.0,-99.9,-100.00,West,261,9.0,16.0,-999,-99.99,,,-99.99,,2013-02-02 04:02:00,
2013-02-01 23:11:00,1.0,-99.9,-100.00,West,261,9.0,16.0,-999,-99.99,,,-99.99,,2013-02-02 04:11:00,
2013-02-01 23:22:00,1.0,-99.9,-100.00,West,261,9.0,16.0,-999,-99.99,,,-99.99,,2013-02-02 04:22:00,
2013-02-01 23:33:00,1.0,-99.9,-100.00,West,261,9.0,16.0,-999,-99.99,,,-99.99,,2013-02-02 04:33:00,